Location: Austin
(30.3000°N, 97.7500°W)
Time: 02:00:47
(UTC-05:00)

Centaur D-1A AC-35 - Pass Details

Date: 15 April 2025
Orbit: 577 x 36439 km, 26.1° (Epoch: 27 April)

Event Time Altitude Azimuth Distance (km) Brightness Sun altitude
Rises 21:22:42 0° 268° (W) 3,332 7.0 -18.0°
Reaches altitude 10° 21:24:11 10° 265° (W) 2,727 6.2 -18.3°
Maximum altitude 21:29:58 68° 182° (S) 2,043 4.5 -19.4°
Enters shadow 21:46:45 25° 107° (ESE) 8,135 7.1 -22.7°
Exits shadow 22:30:28 - 108° (ESE) 20,181 9.2 -30.7°
Drops below altitude 10° 06:47:59 10° 146° (SSE) 21,670 10.1 -3.9°
Sets 07:18:53 0° 135° (SE) 16,151 9.8 2.7°
